STARLINK-1569 (46039 NORAD) Tracking and Keplerian Element Data

This shows tracking and keplerian element data for the satellite.

Feedback or suggestion? Click here.




ElementValue
Catalog46039
NameSTARLINK-1569
Epoch Orbit1830
Epoch Day336.1541178
Epoch Year2020
RAAN126.1906
Inclination53.0016
Eccentricity0.0001855
Argument of Perigee90.8634
Mean Anonmoly269.2566
Mean Motion15.0558018
Decay Rate-1.083E-05
L11 46039U 20055N 20336.15411780 -.00001083 00000-0 -55122-4 0 9998
L22 46039 53.0016 126.1906 0001855 90.8634 269.2566 15.05580180 18304

Live tracking and technical data element details for STARLINK-1569 (NORAD 46039). STARLINK-1569 can be tracked NOW for your location showing map with azimuth and elevation plus other details from your city location.

Track the satellite on the map from your city or location and see movement details for azimuth, elevation, latitude, longitude, range, height, and movement on the map or in text.







IsCatalogInMostPopularTable: catalog: 46039, numindb: 25
Update: records affected: 1



GetName: 46039 STARLINK-1569

Hit Count: updated at: Tue, 01 Dec 2020 21:40:32 GMT